Tracking 29892 objects as of 21-Nov-2024
HD Live streaming from Space Station
objects crossing your sky now

NOAA 16 DEB

Track NOAA 16 DEB now!
10-day predictions


NORAD ID: 41707
Int'l Code: 2000-055PM
Perigee: 755.0 km
Apogee: 789.5 km
Inclination: 98.8 °
Period: 100.1 minutes
Semi major axis: 7143 km
RCS: Unknown
Launch date: September 21, 2000
Source: United States (US)
Launch site: AIR FORCE WESTERN TEST RANGE (AFWTR)

Note: This is SATELLITE DEBRIS
Your satellite tracking list
Your tracking list is empty




NASA's NSSDC Master Catalog

Two Line Element Set (TLE):
1 41707U 00055PM  24325.27188953  .00013298  00000-0  43900-2 0  9999
2 41707  98.8251  81.5446 0024159  50.0988 310.2316 14.37988364445993
Source of the keplerian elements: AFSPC